Dewpoint
57 57 58 58 58 58 58 56 56 56 57 56 56 56 55 56 56 49 41 43 33 40 43 31 27 28 30 28 26 26 21 21 22 22 22 23 28 45 51 52 53 53 53 56 63
58 58 58 58 58 57 56 56 56 56 56 55 55 55 54 56 52 46 46 41 42 38 35 33 32 29 29 29 28 24 22 22 23 23 24 25 25 34 47 50 50 51 56 60 61
58 58 58 58 58 56 56 55 55 55 54 54 55 54 53 56 45 40 48 44 45 41 35 30 29 29 28 29 28 26 23 24 24 25 26 25 28 43 44 45 49 49 55 59 59
58 58 57 57 56 55 54 53 53 53 53 53 54 53 55 52 29 39 48 45 48 43 39 39 36 30 27 27 28 26 27 26 26 26 28 26 32 38 45 37 46 51 56 57 58
53 53 53 53 53 53 52 52 52 52 52 53 54 53 53 42 41 46 50 46 47 46 43 40 38 30 27 27 27 25 26 27 27 28 27 27 25 31 38 44 49 53 56 57 58
50 50 51 52 52 52 52 52 52 53 52 53 54 54 48 37 42 49 50 49 48 46 44 40 39 32 35 30 26 26 26 27 27 27 28 26 26 34 30 49 50 53 55 56 58
51 51 50 50 51 51 52 52 52 53 53 53 54 55 42 35 40 43 46 45 47 46 44 43 43 40 35 33 31 27 27 29 29 28 28 28 28 31 32 50 49 52 54 55 57
49 48 49 51 51 52 52 52 53 53 53 53 54 52 26 38 46 47 48 46 49 49 48 47 45 40 38 36 32 32 29 28 28 25 26 26 22 26 41 48 46 50 52 54 56
48 48 48 48 49 50 50 50 52 53 53 53 50 44 24 42 44 48 50 48 47 47 49 46 43 39 30 35 32 28 28 28 28 29 28 26 23 24 48 48 45 49 51 52 53
48 47 47 46 46 47 48 49 50 54 53 51 52 39 38 29 45 48 49 49 44 42 39 38 34 35 31 33 31 30 27 28 27 28 28 27 27 28 33 47 43 47 50 51 51
47 47 46 45 44 44 49 45 39 37 44 43 42 44 43 46 42 45 45 42 42 36 34 31 33 33 34 32 34 31 28 27 27 28 27 27 27 27 28 39 41 46 49 50 50
45 45 45 45 44 46 49 45 46 47 41 43 43 42 42 41 37 34 35 34 39 36 32 30 30 33 34 30 29 28 27 26 27 28 28 27 28 29 28 32 37 40 47 49 49
45 45 45 44 43 47 47 48 49 49 41 38 42 40 40 40 36 32 32 39 33 33 33 31 30 31 30 28 27 27 26 27 27 28 30 28 27 27 27 28 33 39 42 46 48
45 45 45 43 40 45 45 49 47 49 32 25 31 35 34 32 29 31 28 29 31 31 34 34 32 31 31 29 28 27 30 29 28 30 27 27 25 28 28 26 28 31 39 42 44
46 45 45 47 42 39 46 44 47 41 14 25 25 34 32 30 28 28 32 29 23 30 38 36 38 31 30 31 31 30 34 33 32 30 29 29 27 27 24 25 26 27 31 40 42
45 45 43 43 42 46 43 43 42 22 16 20 23 24 23 28 28 26 29 33 32 28 29 34 37 38 38 37 35 35 33 32 30 29 27 28 27 24 25 26 26 25 27 33 38
45 44 41 45 34 43 41 42 25 21 24 20 23 23 23 23 23 26 34 32 32 29 27 26 23 28 35 33 36 38 36 31 26 23 23 25 25 24 25 25 24 26 28 30 33
44 41 39 42 41 42 40 32 22 23 23 24 24 23 22 26 26 27 33 34 32 32 34 32 27 32 32 30 27 33 36 30 23 21 18 24 19 20 25 30 30 29 29 32 32
39 36 36 39 42 41 38 27 21 22 23 24 23 22 24 25 27 26 30 32 35 34 31 29 32 31 33 26 30 30 27 31 28 27 24 23 23 26 28 28 28 25 27 30 32
34 34 32 39 42 41 32 22 24 26 27 26 21 25 23 27 28 29 30 33 34 35 31 30 26 29 28 34 34 31 32 31 33 26 23 24 25 23 27 27 25 24 26 31 33
33 26 30 43 42 35 24 25 27 27 26 25 24 23 25 26 28 28 29 28 32 28 28 27 28 23 21 27 25 27 30 32 32 31 26 22 22 28 27 27 25 24 25 30 33
31 16 30 43 29 29 25 28 29 27 26 25 26 24 24 27 27 26 25 23 25 26 23 33 30 24 23 23 31 27 30 32 26 23 25 25 21 28 26 23 27 26 26 28 33
27 27 32 39 20 23 25 27 28 27 25 25 24 25 23 23 20 21 23 28 27 28 29 31 27 19 13 21 31 31 31 31 29 27 20 21 18 28 24 23 28 29 25 23 31
29 20 23 35 31 24 23 23 21 27 26 26 24 24 22 22 25 22 24 23 24 23 30 29 27 20 13 14 24 22 20 22 26 21 20 22 20 20 22 26 28 26 23 23 29
28 25 29 22 24 28 28 29 25 22 29 30 26 26 22 20 20 18 20 23 23 23 28 25 21 24 23 24 23 20 18 17 17 23 21 19 20 21 20 19 22 23 23 24 29
26 25 28 27 26 25 26 25 27 28 29 27 26 29 30 24 22 18 21 21 20 23 24 26 19 22 17 15 15 15 14 13 13 13 14 16 16 19 21 20 18 18 21 27 29
30 31 26 22 22 22 22 25 24 23 27 29 25 26 26 27 27 23 25 24 24 22 21 23 21 19 12 11 11 9 10 10 8 9 10 10 13 14 15 15 17 18 21 24 28
Wind_Speed
3 4 5 7 9 10 13 14 15 17 17 18 21 24 27 25 25 3 3 0 2 8 2 6 5 10 3 2 2 3 4 7 6 6 3 2 3 1 2 7 4 6 2 6 26
2 3 4 5 8 11 12 13 16 16 18 19 21 24 28 28 9 9 3 2 2 6 5 9 10 9 3 1 2 5 5 8 5 5 4 8 10 6 6 6 9 6 3 21 25
1 2 4 5 7 10 13 13 15 15 16 18 19 23 27 19 8 4 4 0 1 5 3 2 2 2 2 2 2 3 10 8 6 7 3 5 6 5 7 10 17 23 15 22 26
2 2 2 5 6 8 11 13 13 14 16 16 17 21 27 4 8 1 5 1 4 2 1 4 6 4 2 3 1 6 8 7 6 2 5 7 2 6 14 15 3 12 26 26 28
5 5 5 6 7 9 10 12 14 14 15 14 14 17 8 6 12 6 11 6 6 5 4 4 4 1 4 3 5 11 12 7 8 10 14 10 15 10 14 18 4 13 23 28 29
3 5 8 9 12 12 14 13 13 15 15 12 10 10 1 19 4 4 7 10 4 7 8 5 4 2 6 5 5 3 10 14 12 15 12 15 16 6 11 6 7 15 22 26 30
4 5 7 8 10 15 17 17 16 16 15 10 6 1 2 27 7 8 14 12 9 10 10 10 6 6 2 4 4 6 14 20 15 10 9 16 10 15 15 11 13 16 17 21 26
7 8 10 12 14 17 19 19 18 18 15 10 6 4 10 7 7 14 10 16 14 17 19 10 8 10 7 4 5 9 7 14 4 3 4 12 18 14 6 12 17 16 17 21 25
10 11 12 14 14 16 20 24 20 9 1 7 4 4 12 10 8 8 9 6 7 2 6 1 10 6 4 12 9 4 13 12 15 7 7 9 5 2 4 10 14 15 18 20 21
8 9 10 12 17 20 25 23 8 6 6 4 2 3 10 9 3 7 4 7 3 3 4 5 4 8 7 14 18 7 8 8 13 1 4 9 15 21 12 13 19 18 18 20 22
8 9 11 14 16 18 13 5 5 1 4 6 6 7 13 5 9 4 4 9 4 4 12 7 9 20 30 21 20 13 10 15 16 17 9 20 20 19 21 15 19 19 20 23 26
8 10 12 14 18 18 3 5 5 4 12 19 27 22 25 18 16 25 14 9 6 17 7 8 23 23 14 18 18 15 17 21 20 18 5 18 24 23 20 13 19 23 23 28 27
9 11 14 17 17 4 4 5 5 4 7 13 6 9 7 10 11 27 14 6 18 20 17 27 8 22 19 14 16 19 20 18 16 24 11 15 20 15 11 16 16 21 25 24 26
11 13 15 23 4 6 1 10 9 2 6 7 3 5 3 5 7 10 12 15 12 17 19 18 23 15 13 23 21 26 16 18 16 11 16 5 17 21 16 18 16 21 22 27 27
10 13 14 7 4 4 8 15 8 2 8 4 1 1 4 5 10 2 3 14 21 13 12 8 5 22 30 23 13 11 8 10 9 13 16 16 15 11 6 11 18 22 22 24 26
9 10 13 5 5 4 14 17 1 1 10 2 5 9 11 2 5 9 1 2 4 13 21 16 1 2 7 8 20 2 4 4 4 5 23 18 16 13 10 8 9 13 12 17 20
9 9 6 2 2 11 14 5 2 8 5 4 5 8 8 8 10 10 6 14 5 2 4 7 27 18 6 4 2 2 2 4 8 11 22 3 13 19 8 14 14 18 20 21 16
8 7 3 3 8 10 6 3 10 2 4 3 4 9 2 13 8 12 5 7 17 8 3 3 2 4 8 10 21 24 13 7 7 9 10 3 12 4 13 17 16 16 16 19 23
6 4 3 2 7 2 2 10 7 4 3 3 4 2 3 5 4 10 11 11 12 21 6 10 2 8 10 10 6 4 18 18 28 32 22 18 16 14 10 16 21 21 23 23 23
3 5 3 9 1 3 5 10 6 4 2 3 1 3 1 5 4 7 8 5 4 9 10 10 7 6 11 12 10 7 5 4 8 9 14 10 11 7 11 16 21 23 22 18 19
3 4 3 5 3 3 6 7 4 5 4 2 2 4 1 1 2 4 4 5 5 5 7 9 2 9 9 4 12 10 5 4 4 5 5 10 6 11 12 15 20 19 20 18 16
3 1 4 2 3 3 5 3 4 2 4 2 1 4 7 5 2 5 8 9 8 6 3 4 4 5 8 18 13 11 8 2 5 6 5 6 6 17 7 23 18 19 20 18 13
2 2 2 2 4 5 1 3 3 3 2 0 1 1 2 4 6 4 6 3 4 1 4 7 3 9 14 3 8 4 4 3 10 4 8 7 7 1 30 32 20 20 25 24 17
2 0 2 2 2 3 4 4 6 5 9 7 5 4 6 7 7 4 5 2 5 2 7 8 7 11 17 16 11 18 19 20 11 10 16 17 35 32 26 26 30 29 28 23 23
3 1 1 1 1 1 1 3 4 4 2 2 3 11 14 11 7 10 6 2 2 5 2 4 6 10 16 14 11 16 22 24 18 20 19 33 28 42 34 32 29 28 25 27 24
4 3 1 2 2 2 3 1 4 5 4 3 3 3 2 4 6 4 3 2 4 2 2 1 5 2 10 11 11 14 21 24 24 25 25 30 32 36 37 30 28 25 24 25 26
2 1 2 2 2 1 0 3 4 3 3 4 4 3 3 4 6 9 8 8 8 7 6 6 5 5 17 10 10 14 26 25 26 26 21 23 27 31 36 36 28 27 27 26 26
Wind_Direction
30 20 19 9 1 358 352 352 345 342 343 344 340 337 334 335 325 322 314 230 319 333 54 335 15 357 82 111 113 134 215 237 238 222 256 249 267 156 126 157 205 210 171 151 147
36 17 15 9 353 348 339 346 339 340 339 342 340 337 334 338 327 311 301 125 42 358 26 15 2 2 9 24 170 198 215 225 229 205 259 296 283 236 184 191 215 210 121 146 149
330 336 329 340 334 341 333 340 333 335 337 339 339 336 332 336 319 207 1 123 76 36 43 79 43 11 0 333 211 200 243 226 236 246 216 273 275 188 198 227 221 215 166 165 164
118 82 29 7 344 341 327 328 325 330 328 331 336 335 327 349 297 254 4 8 343 35 58 356 0 358 294 264 290 269 252 239 263 237 323 285 194 228 217 247 321 190 168 171 181
50 19 10 357 336 327 322 321 320 319 320 326 334 336 351 320 254 288 330 337 343 352 351 317 318 320 268 270 290 255 271 272 269 274 289 270 258 244 240 241 316 168 170 184 188
39 3 348 357 332 326 317 315 315 310 313 318 328 331 9 286 254 324 352 317 283 316 292 214 221 185 281 243 222 291 288 284 279 272 256 252 263 194 244 195 192 180 192 189 191
47 15 347 346 332 321 316 316 309 303 303 299 302 91 235 256 259 293 305 272 266 261 266 221 210 212 186 271 254 277 297 300 270 257 238 238 240 229 237 182 196 203 202 199 200
29 22 13 353 347 331 322 313 306 299 297 280 210 151 255 259 286 288 274 286 261 251 239 252 226 233 231 263 283 283 278 281 248 207 249 183 260 254 222 202 216 208 205 204 204
23 23 14 351 343 330 322 314 307 305 232 136 166 182 261 308 273 272 209 248 301 229 197 58 158 181 177 230 262 222 257 250 286 242 244 205 273 324 191 213 246 230 221 213 208
14 4 5 356 342 331 323 317 310 109 106 160 212 282 258 251 311 311 238 255 273 325 119 167 154 174 207 206 235 211 229 244 257 123 42 297 282 289 269 221 241 237 227 221 220
12 1 3 351 337 327 339 0 359 309 17 253 254 260 292 298 332 271 16 333 262 198 215 189 201 205 221 216 237 244 250 259 260 280 298 282 278 269 279 227 242 239 229 229 228
20 359 360 340 329 322 25 80 72 317 293 265 253 256 263 277 282 272 289 271 240 229 188 210 228 223 231 208 223 234 250 264 282 280 243 287 280 271 262 244 230 234 229 229 231
19 7 360 340 331 27 345 87 347 344 270 283 226 250 241 199 241 264 229 228 237 238 212 224 219 223 216 217 216 236 240 257 261 293 279 287 285 256 251 245 243 240 235 234 227
20 16 2 339 81 333 40 336 336 169 291 277 260 273 194 207 256 243 217 216 224 244 226 250 238 237 214 228 218 243 238 249 262 282 285 10 286 278 270 255 240 240 230 230 229
19 14 4 19 320 325 325 324 327 166 298 7 342 338 311 208 308 49 197 187 230 232 194 228 215 222 234 231 196 235 212 231 246 261 288 266 272 275 259 263 257 253 239 236 233
23 17 0 22 340 328 333 325 18 47 249 344 19 347 349 275 304 326 125 93 229 241 256 261 30 226 235 231 224 216 221 235 221 256 264 260 235 303 262 253 268 267 280 256 244
10 3 356 346 313 335 338 335 127 219 343 7 359 335 339 337 0 359 68 57 27 280 224 249 253 246 264 296 179 238 91 238 241 221 254 220 232 257 294 337 37 34 23 9 326
358 343 358 247 291 334 345 108 215 224 290 317 322 316 84 24 16 3 90 37 27 3 318 309 185 358 353 245 242 231 184 234 243 233 281 334 248 228 78 79 58 44 28 21 18
359 352 356 353 339 127 128 210 223 207 239 337 331 360 70 21 48 22 33 21 35 28 27 358 216 340 16 342 326 230 213 248 235 248 273 251 259 266 347 28 20 20 19 9 4
15 357 317 332 65 119 183 233 231 229 44 20 287 23 334 18 42 41 10 28 17 42 29 14 300 39 343 1 25 41 288 212 186 215 217 242 230 210 51 35 13 7 3 359 359
46 9 312 349 126 132 203 228 285 316 288 307 249 246 11 311 154 157 204 290 159 330 337 341 75 299 339 9 323 328 329 301 309 271 249 252 222 137 78 23 5 360 352 343 349
102 116 324 323 135 162 198 194 317 339 27 319 265 264 263 204 233 239 215 225 230 254 264 45 250 262 303 294 313 255 284 11 317 17 323 296 274 175 69 350 342 335 336 326 328
110 282 349 120 207 210 210 285 276 294 238 46 271 182 19 201 265 242 248 80 54 93 184 171 178 308 304 209 41 2 29 35 345 302 281 298 267 188 310 323 323 312 317 316 314
86 32 344 77 154 163 203 260 255 239 238 230 239 255 275 259 235 259 253 310 9 13 200 180 222 231 249 258 287 290 290 290 281 270 285 260 286 289 293 301 299 302 310 311 307
38 171 86 100 16 85 58 295 251 247 336 26 235 241 243 245 243 247 244 259 285 288 217 205 252 239 257 272 272 283 284 287 278 266 268 283 279 285 287 289 296 295 296 292 289
144 148 108 225 262 198 132 312 15 11 20 355 300 337 352 208 217 251 285 229 253 306 219 9 270 324 280 279 262 269 271 276 274 270 268 264 271 272 285 289 290 295 294 287 293
154 168 138 360 41 58 171 71 72 25 18 103 20 345 316 303 314 296 278 260 255 257 256 258 248 259 270 274 283 267 258 259 261 264 262 268 274 288 290 290 293 296 290 293 290